W3EJE-13 Weather Reports


Display with metric or nautical units.
time (UTC)temp
F
wind
direction
speed
MPH
gust
MPH
rain 1hr
in
rain 24hr
in
rain mn
in
humidity
%
barometer
mb
20260901103813 66 236 0.0 0.0 0.00 0.01 0.01 99 1021.3
20260901103312 67 242 0.0 0.0 0.00 0.01 0.01 99 1021.5
20260901102807 67 238 0.0 0.0 0.00 0.01 0.01 99 1021.4
20260901102305 67 242 0.0 0.0 0.00 0.01 0.01 99 1021.4
20260901101757 67 238 0.0 0.0 0.00 0.01 0.01 99 1021.5
20260901101252 67 232 0.0 0.0 0.00 0.01 0.01 99 1021.5
20260901100751 67 234 0.0 0.0 0.00 0.01 0.01 99 1021.5
20260901100246 67 237 0.0 0.0 0.00 0.01 0.01 99 1021.2
20260901095744 67 236 0.0 0.0 0.00 0.01 0.01 99 1021.4
20260901095242 67 236 0.0 0.0 0.00 0.01 0.01 99 1021.6
20260901094737 67 233 0.0 0.0 0.00 0.01 0.01 99 1021.4
20260901094232 67 233 0.0 0.0 0.00 0.01 0.01 99 1021.6
20260901093727 67 233 0.0 0.0 0.00 0.01 0.01 99 1021.4
20260901093226 67 233 0.0 0.0 0.00 0.01 0.01 99 1021.4
20260901092722 67 233 0.0 0.0 0.00 0.01 0.01 99 1021.4
20260901092218 67 236 0.0 0.0 0.00 0.01 0.01 99 1021.6
20260901091713 67 236 0.0 0.0 0.00 0.01 0.01 99 1021.5
20260901091208 68 229 0.0 0.0 0.00 0.01 0.01 99 1021.5
20260901090703 68 230 0.0 0.0 0.00 0.01 0.01 99 1021.5
20260901090158 68 230 0.0 0.0 0.00 0.01 0.01 99 1021.7
20260901085654 68 229 0.0 0.0 0.00 0.01 0.01 99 1021.5
20260901085149 68 221 0.0 0.0 0.00 0.01 0.01 99 1021.3
20260901084645 68 226 0.0 0.0 0.00 0.01 0.01 99 1021.4
20260901084142 68 233 0.0 0.0 0.00 0.01 0.01 99 1021.4
20260901083641 68 235 0.0 0.0 0.00 0.01 0.01 99 1021.4
20260901083140 68 227 0.0 0.0 0.00 0.01 0.01 99 1021.4
20260901082634 68 233 0.0 0.0 0.00 0.01 0.01 99 1021.5
20260901082130 68 227 0.0 0.0 0.00 0.01 0.01 99 1021.8
20260901081625 68 225 0.0 0.0 0.00 0.01 0.01 99 1021.7
20260901081120 67 234 0.0 0.0 0.00 0.01 0.01 99 1021.5
20260901080614 68 238 0.0 0.0 0.00 0.01 0.01 99 1021.5
20260901080113 67 233 0.0 0.0 0.00 0.01 0.01 99 1021.7
20260901075609 68 238 0.0 0.0 0.00 0.01 0.01 99 1021.8
20260901075108 68 235 0.0 0.0 0.07 0.01 0.01 99 1021.8
20260901074607 67 231 0.0 0.0 0.07 0.01 0.01 99 1021.6
20260901074103 67 220 0.0 0.0 0.00 0.00 0.00 99 1021.6
20260901073559 67 230 0.0 0.0 0.00 0.00 0.00 99 1021.4
20260901073059 67 227 0.0 0.0 0.00 0.00 0.00 99 1021.5
20260901072555 67 231 0.0 0.0 0.00 0.00 0.00 99 1021.7
20260901072049 67 231 0.0 0.0 0.00 0.00 0.00 99 1021.6
20260901071550 67 225 0.0 0.0 0.00 0.00 0.00 99 1021.6
20260901071048 67 227 0.0 0.0 0.00 0.00 0.00 99 1021.7
20260901070544 67 234 0.0 0.0 0.00 0.00 0.00 99 1021.8
20260901070039 67 225 0.0 0.0 0.00 0.00 0.00 99 1021.9
20260901065533 67 228 0.0 0.0 0.00 0.00 0.00 99 1021.8
20260901065027 67 230 0.0 0.0 0.00 0.00 0.00 99 1021.9
20260901064525 67 233 0.0 0.0 0.00 0.00 0.00 99 1021.7
20260901064021 66 227 0.0 0.0 0.00 0.00 0.00 99 1021.8
20260901063517 66 227 0.0 0.0 0.00 0.00 0.00 99 1021.8
20260901063013 66 227 0.0 0.0 0.00 0.00 0.00 99 1022.0
20260901062509 66 227 0.0 0.0 0.00 0.00 0.00 99 1022.1
20260901062005 66 228 0.0 0.0 0.00 0.00 0.00 99 1022.0
20260901061501 66 228 0.0 0.0 0.00 0.00 0.00 99 1022.2
20260901060955 66 226 0.0 0.0 0.00 0.00 0.00 99 1022.3
20260901060450 66 228 0.0 0.0 0.00 0.00 0.00 99 1022.3
20260901055949 66 227 0.0 0.0 0.00 0.00 0.00 99 1022.2
20260901055446 66 227 0.0 0.0 0.00 0.00 0.00 99 1022.1
20260901054943 66 229 0.0 0.0 0.00 0.00 0.00 99 1022.2
20260901054440 66 230 0.0 0.0 0.00 0.00 0.00 99 1022.2
20260901053935 66 230 0.0 0.0 0.00 0.00 0.00 99 1022.4
20260901053431 66 230 0.0 0.0 0.00 0.00 0.00 99 1022.4
20260901052926 66 230 0.0 0.0 0.00 0.00 0.00 99 1022.2
20260901052421 66 230 0.0 0.0 0.00 0.00 0.00 99 1022.1
20260901051920 66 230 0.0 0.0 0.00 0.00 0.00 99 1022.4
20260901051416 66 228 0.0 0.0 0.00 0.00 0.00 99 1022.5
20260901050910 66 230 0.0 0.0 0.00 0.00 0.00 99 1022.4
20260901050406 66 230 0.0 0.0 0.00 0.00 0.00 99 1022.4
20260901045905 66 230 0.0 0.0 0.00 0.00 0.00 99 1022.5
20260901045400 66 230 0.0 0.0 0.00 0.00 0.00 99 1022.3
20260901044855 67 229 0.0 0.0 0.00 0.00 0.00 99 1022.2
20260901044351 67 231 0.0 0.0 0.00 0.00 0.00 99 1022.2
20260901043847 67 231 0.0 0.0 0.00 0.00 0.00 99 1022.2
20260901043343 67 233 0.0 0.0 0.00 0.00 0.00 99 1022.2
20260901042842 67 230 0.0 0.0 0.00 0.00 0.00 99 1022.2
20260901042337 67 230 0.0 0.0 0.00 0.00 0.00 99 1021.9
20260901041832 67 229 0.0 0.0 0.00 0.00 0.00 99 1022.2
20260901041328 68 226 0.0 0.0 0.00 0.00 0.00 99 1022.1
20260901040822 68 228 0.0 0.0 0.00 0.00 0.00 99 1022.1
20260901040321 68 231 0.0 0.0 0.00 0.00 0.00 99 1022.3
20260901035821 68 231 0.0 0.0 0.00 0.00 0.00 99 1022.3
20260901035320 68 231 0.0 0.0 0.00 0.00 0.00 99 1022.4
20260901034818 68 231 0.0 0.0 0.00 0.00 0.00 99 1022.4
20260901034314 68 232 0.0 0.0 0.00 0.00 0.00 99 1022.5
20260901033808 68 231 0.0 0.0 0.00 0.00 0.00 99 1022.3
20260901033307 68 231 0.0 0.0 0.00 0.00 0.00 99 1022.5
20260901032806 68 231 0.0 0.0 0.00 0.00 0.00 99 1022.6
20260901032306 68 231 0.0 0.0 0.00 0.00 0.00 99 1022.5
20260901031801 68 232 0.0 0.0 0.00 0.00 0.00 99 1022.6
20260901031256 69 232 0.0 0.0 0.00 0.00 0.00 99 1022.5
20260901030751 69 231 0.0 0.0 0.00 0.00 0.00 99 1022.7
20260901030245 69 232 0.0 0.0 0.00 0.00 0.00 99 1022.7
20260901025745 69 232 0.0 0.0 0.00 0.00 0.00 99 1022.6
20260901025240 69 231 0.0 0.0 0.00 0.00 0.00 99 1023.0
20260901024735 69 232 0.0 0.0 0.00 0.00 0.00 99 1022.7
20260901024234 69 232 0.0 0.0 0.00 0.00 0.00 99 1023.0
20260901023732 69 232 0.0 0.0 0.00 0.00 0.00 99 1022.8
20260901023228 69 232 0.0 0.0 0.00 0.00 0.00 99 1023.0
20260901022723 69 232 0.0 0.0 0.00 0.00 0.00 99 1022.8
20260901022218 69 232 0.0 0.0 0.00 0.00 0.00 99 1023.3
20260901021713 69 232 0.0 0.0 0.00 0.00 0.00 99 1023.0
20260901021209 69 232 0.0 0.0 0.00 0.00 0.00 99 1023.3
20260901020704 69 232 0.0 0.0 0.00 0.00 0.00 99 1023.2
20260901020159 69 232 0.0 0.0 0.00 0.00 0.00 99 1022.8
20260901015654 69 232 0.0 0.0 0.00 0.00 0.00 99 1023.2
20260901015155 69 232 0.0 0.0 0.00 0.00 0.00 99 1022.7
20260901014649 69 232 0.0 0.0 0.00 0.00 0.00 99 1022.8
20260901014145 69 235 0.0 0.0 0.00 0.00 0.00 99 1022.8
20260901013641 70 236 0.0 0.0 0.00 0.00 0.00 99 1022.5
20260901013136 70 239 0.0 0.0 0.00 0.00 0.00 99 1023.0
20260901012631 70 239 0.0 0.0 0.00 0.00 0.00 99 1022.7
20260901012126 70 231 0.0 0.0 0.00 0.00 0.00 99 1022.6
20260901011622 70 237 0.0 0.0 0.00 0.00 0.00 99 1022.4
20260901011121 70 236 0.0 0.0 0.00 0.00 0.00 99 1022.7
20260901010616 71 237 0.0 0.0 0.00 0.00 0.00 99 1022.5
20260901010115 71 237 0.0 0.0 0.00 0.00 0.00 99 1022.6
20260901005615 71 237 0.0 0.0 0.00 0.00 0.00 99 1022.2
20260901005110 71 236 0.0 0.0 0.00 0.00 0.00 99 1022.0
20260901004609 71 237 0.0 0.0 0.00 0.00 0.00 98 1022.0
20260901004104 71 237 0.0 0.0 0.00 0.00 0.00 98 1022.0
20260901003559 72 237 0.0 0.0 0.00 0.00 0.00 98 1022.0
20260901003057 72 229 0.0 0.0 0.00 0.00 0.00 98 1022.1
20260901002552 72 237 0.0 0.0 0.00 0.00 0.00 98 1022.1
20260901002047 72 238 0.0 0.0 0.00 0.00 0.00 97 1021.9
20260901001542 73 238 0.0 0.0 0.00 0.00 0.00 97 1021.9
20260901001037 73 238 0.0 0.0 0.00 0.00 0.00 96 1022.0
20260901000532 73 239 0.0 0.0 0.00 0.00 0.00 96 1022.0
20260901000028 73 239 0.0 0.0 0.00 0.00 0.00 95 1021.9
20260831235521 74 239 0.0 0.0 0.00 0.00 0.00 95 1022.0
20260831235017 74 236 0.0 0.0 0.00 0.00 0.00 94 1021.8
20260831234511 74 238 0.0 0.0 0.00 0.00 0.00 94 1021.9
20260831234007 74 252 0.0 0.0 0.00 0.00 0.00 93 1022.1
20260831233501 75 253 0.0 0.0 0.00 0.00 0.00 93 1022.3
20260831232957 75 253 0.0 0.0 0.00 0.00 0.00 91 1022.1
20260831232452 76 244 0.0 0.0 0.00 0.00 0.00 88 1021.8
20260831231948 76 244 0.0 0.0 0.00 0.00 0.00 88 1021.9
20260831231445 77 245 0.0 0.0 0.00 0.00 0.00 89 1022.2
20260831230940 77 253 0.0 0.0 0.00 0.00 0.00 87 1021.8
20260831230435 78 254 0.0 0.0 0.00 0.00 0.00 85 1022.0
20260831225929 78 257 0.0 0.0 0.00 0.00 0.00 85 1022.1
20260831225425 80 253 0.0 0.0 0.00 0.00 0.00 82 1022.0
20260831224920 79 270 0.0 0.0 0.00 0.00 0.00 81 1022.0
20260831224419 79 261 0.0 0.0 0.00 0.00 0.00 83 1022.2
20260831223914 78 245 0.0 0.0 0.00 0.00 0.00 83 1022.2
20260831223410 79 268 0.0 0.0 0.00 0.00 0.00 82 1022.0
20260831222907 79 270 0.0 0.0 0.00 0.00 0.00 83 1022.2
20260831222402 79 252 0.0 0.0 0.00 0.00 0.00 83 1022.3
20260831221857 78 263 0.0 0.0 0.00 0.00 0.00 86 1022.3
20260831221353 78 255 0.0 0.0 0.00 0.00 0.00 86 1022.4
20260831220848 78 259 0.0 0.0 0.00 0.00 0.00 87 1022.4
20260831220343 78 250 0.0 0.0 0.00 0.00 0.00 87 1022.7
20260831215838 78 249 0.0 0.0 0.00 0.00 0.00 86 1022.8
20260831215334 78 252 0.0 0.0 0.00 0.00 0.00 87 1022.3
20260831214830 78 259 0.0 0.0 0.00 0.00 0.00 86 1022.5
20260831214328 78 254 1.0 1.0 0.00 0.00 0.00 86 1022.5
20260831213822 78 255 1.0 2.0 0.00 0.00 0.00 86 1022.6
20260831213319 78 289 3.0 3.0 0.00 0.00 0.00 86 1022.4
20260831212814 78 251 1.0 2.0 0.00 0.00 0.00 86 1022.6
20260831212311 78 263 2.0 2.0 0.00 0.00 0.00 85 1022.5
20260831211809 78 254 0.0 1.0 0.00 0.00 0.00 85 1022.5
20260831211304 78 267 3.0 3.0 0.00 0.00 0.00 85 1022.4
20260831210758 78 306 4.0 6.0 0.00 0.00 0.00 85 1022.5
20260831210255 78 279 0.0 0.0 0.00 0.00 0.00 85 1022.4
20260831205754 78 270 2.0 2.0 0.00 0.00 0.00 85 1022.7
20260831205250 78 270 3.0 3.0 0.00 0.00 0.00 85 1022.4
20260831204750 78 279 4.0 5.0 0.00 0.00 0.00 85 1022.6
20260831204249 78 283 4.0 5.0 0.00 0.00 0.00 86 1022.8
20260831203748 78 273 1.0 1.0 0.00 0.00 0.00 86 1022.4
20260831203244 78 263 3.0 3.0 0.00 0.00 0.00 85 1022.7
20260831202742 78 303 4.0 5.0 0.00 0.00 0.00 83 1022.5
20260831202237 78 269 2.0 2.0 0.00 0.00 0.00 84 1022.7
20260831201737 78 286 2.0 3.0 0.00 0.00 0.00 83 1022.8
20260831201236 78 254 2.0 3.0 0.00 0.00 0.00 86 1022.8
20260831200732 78 288 1.0 2.0 0.00 0.00 0.00 84 1023.0
20260831200226 78 257 2.0 2.0 0.00 0.00 0.00 85 1023.1
20260831195722 78 266 2.0 3.0 0.00 0.00 0.00 85 1022.8
20260831195218 78 267 3.0 3.0 0.00 0.00 0.00 85 1023.0
20260831194712 78 275 5.0 6.0 0.00 0.00 0.00 83 1023.2
20260831194208 78 253 2.0 2.0 0.00 0.00 0.00 84 1023.0
20260831193701 78 260 3.0 3.0 0.00 0.00 0.00 83 1023.1
20260831193157 78 262 0.0 0.0 0.00 0.00 0.00 84 1023.3
20260831192652 78 263 3.0 3.0 0.00 0.00 0.00 83 1023.2
20260831192147 78 259 2.0 3.0 0.00 0.00 0.00 83 1023.1
20260831191643 79 276 5.0 6.0 0.00 0.00 0.00 84 1023.4
20260831191139 78 262 3.0 3.0 0.00 0.00 0.00 82 1023.4
20260831190634 79 258 3.0 5.0 0.00 0.00 0.00 85 1023.3
20260831190132 79 272 4.0 6.0 0.00 0.00 0.00 82 1023.1
20260831185629 79 260 4.0 5.0 0.00 0.00 0.00 81 1023.4
20260831185124 79 250 5.0 5.0 0.00 0.00 0.00 80 1023.6
20260831184624 80 254 4.0 5.0 0.00 0.00 0.00 79 1023.5
20260831184120 80 265 3.0 3.0 0.00 0.00 0.00 82 1023.3
20260831183618 80 268 2.0 2.0 0.00 0.00 0.00 82 1023.2
20260831183118 80 289 6.0 6.0 0.00 0.00 0.00 83 1023.2
20260831182617 80 305 5.0 6.0 0.00 0.00 0.00 83 1023.2
20260831182114 79 254 0.0 0.0 0.00 0.00 0.00 82 1023.1
20260831181614 78 272 3.0 3.0 0.00 0.00 0.00 85 1023.5
20260831181108 78 267 2.0 2.0 0.00 0.00 0.00 84 1023.4
20260831180603 78 253 1.0 1.0 0.00 0.00 0.00 85 1023.5
20260831180058 77 234 1.0 1.0 0.00 0.00 0.00 85 1023.4
20260831175553 77 257 1.0 2.0 0.00 0.00 0.00 86 1023.5
20260831175050 77 265 2.0 2.0 0.00 0.00 0.00 88 1023.5
20260831174544 77 285 2.0 3.0 0.00 0.00 0.00 87 1023.6
20260831174038 77 257 1.0 2.0 0.00 0.00 0.00 86 1023.6
20260831173537 77 254 3.0 3.0 0.00 0.00 0.00 86 1023.6
20260831173033 77 278 3.0 3.0 0.00 0.00 0.00 87 1023.5
20260831172528 77 248 1.0 1.0 0.00 0.00 0.00 86 1023.7
20260831172023 77 257 1.0 1.0 0.00 0.00 0.00 86 1023.7
20260831171519 77 246 3.0 3.0 0.00 0.00 0.00 86 1023.7
20260831171016 77 261 1.0 1.0 0.00 0.00 0.00 86 1023.9
20260831170511 78 249 3.0 3.0 0.00 0.00 0.00 85 1023.6
20260831170009 77 256 2.0 3.0 0.00 0.00 0.00 85 1023.6
20260831165503 78 22 7.0 8.0 0.00 0.00 0.00 85 1023.7
20260831165000 78 219 1.0 2.0 0.00 0.00 0.00 84 1023.5
20260831164456 78 256 2.0 3.0 0.00 0.00 0.00 84 1023.6
20260831163951 78 256 1.0 1.0 0.00 0.00 0.00 85 1023.6
20260831163446 78 249 1.0 2.0 0.00 0.00 0.00 87 1023.7
20260831162945 78 263 1.0 1.0 0.00 0.00 0.00 88 1023.6
20260831162440 77 253 0.0 0.0 0.00 0.00 0.00 87 1024.0
20260831161938 77 246 0.0 0.0 0.00 0.00 0.00 88 1023.9
20260831161435 77 250 0.0 0.0 0.00 0.00 0.00 89 1023.9
20260831160931 77 248 0.0 0.0 0.00 0.00 0.00 88 1023.8
20260831160431 77 251 0.0 0.0 0.00 0.00 0.00 88 1023.8
20260831155930 77 246 0.0 0.0 0.00 0.00 0.00 89 1023.9
20260831155425 76 247 0.0 0.0 0.00 0.00 0.00 90 1023.9
20260831154921 76 256 0.0 0.0 0.00 0.00 0.00 91 1024.2
20260831154417 76 297 0.0 0.0 0.00 0.00 0.00 91 1023.9
20260831153915 75 251 0.0 0.0 0.00 0.00 0.00 92 1024.2
20260831153411 75 252 0.0 0.0 0.00 0.00 0.00 92 1024.2
20260831152907 75 250 0.0 0.0 0.00 0.00 0.00 92 1024.3
20260831152403 75 259 0.0 0.0 0.00 0.00 0.00 93 1023.9
20260831151858 75 249 0.0 0.0 0.00 0.00 0.00 92 1024.3
20260831151357 75 272 0.0 0.0 0.00 0.00 0.00 92 1024.2
20260831150852 75 260 0.0 0.0 0.00 0.00 0.00 91 1024.3
20260831150348 75 256 0.0 0.0 0.00 0.00 0.00 92 1024.2
20260831145847 74 262 0.0 0.0 0.00 0.00 0.00 92 1024.2
20260831145343 74 260 0.0 0.0 0.00 0.00 0.00 92 1024.2
20260831144839 74 250 0.0 0.0 0.00 0.00 0.00 93 1024.2
20260831144334 74 316 0.0 0.0 0.00 0.00 0.00 93 1024.1
20260831143829 74 259 0.0 0.0 0.00 0.00 0.00 93 1024.2
20260831143324 73 246 0.0 0.0 0.00 0.00 0.00 94 1024.2
20260831142819 73 249 0.0 0.0 0.00 0.00 0.00 94 1024.0
20260831142315 73 256 0.0 0.0 0.00 0.00 0.00 95 1024.2
20260831141815 72 251 0.0 0.0 0.00 0.00 0.00 96 1024.2
20260831141309 72 270 0.0 0.0 0.00 0.00 0.00 97 1024.1
20260831140804 71 266 0.0 0.0 0.00 0.00 0.00 98 1024.1
20260831140258 71 263 0.0 0.0 0.00 0.00 0.00 99 1024.0
20260831135756 70 252 0.0 0.0 0.00 0.00 0.00 99 1024.0
20260831135252 70 258 0.0 0.0 0.00 0.00 0.00 99 1024.0
20260831134747 69 253 0.0 0.0 0.00 0.00 0.00 99 1024.1
20260831134244 69 253 0.0 0.0 0.00 0.00 0.00 99 1024.2
20260831133743 69 249 0.0 0.0 0.00 0.00 0.00 99 1024.0
20260831133243 69 247 0.0 0.0 0.00 0.00 0.00 99 1024.2
20260831132738 68 254 0.0 0.0 0.00 0.00 0.00 99 1024.1
20260831132233 68 246 0.0 0.0 0.00 0.00 0.00 99 1024.0
20260831131732 68 247 0.0 0.0 0.00 0.00 0.00 99 1023.7
20260831131230 68 246 0.0 0.0 0.00 0.00 0.00 99 1023.9
20260831130724 67 249 0.0 0.0 0.00 0.00 0.00 99 1024.1
20260831130219 67 249 0.0 0.0 0.00 0.00 0.00 99 1024.1
20260831125718 67 247 0.0 0.0 0.00 0.00 0.00 99 1024.0
20260831125214 67 251 0.0 0.0 0.00 0.00 0.00 99 1023.7
20260831124709 67 250 0.0 0.0 0.00 0.00 0.00 99 1024.2
20260831124205 67 256 0.0 0.0 0.00 0.00 0.00 99 1023.9
20260831123705 67 252 0.0 0.0 0.00 0.00 0.00 99 1024.1
20260831123204 66 254 0.0 0.0 0.00 0.00 0.00 99 1024.1
20260831122658 66 249 0.0 0.0 0.00 0.00 0.00 99 1024.0
20260831122154 66 251 0.0 0.0 0.00 0.00 0.00 99 1024.0
20260831121653 66 267 0.0 0.0 0.00 0.00 0.00 99 1023.9
20260831121150 66 244 0.0 0.0 0.00 0.00 0.00 99 1023.8
20260831120645 66 240 0.0 0.0 0.00 0.00 0.00 99 1023.8
20260831120139 66 238 0.0 0.0 0.00 0.00 0.00 99 1023.8
20260831115636 65 238 0.0 0.0 0.00 0.00 0.00 99 1023.9
20260831115131 65 243 0.0 0.0 0.00 0.00 0.00 99 1024.0
20260831114630 65 244 0.0 0.0 0.00 0.00 0.00 99 1023.8
20260831114125 65 244 0.0 0.0 0.00 0.00 0.00 99 1023.6
20260831113624 65 236 0.0 0.0 0.00 0.00 0.00 99 1023.7
20260831113120 64 236 0.0 0.0 0.00 0.00 0.00 99 1023.7
20260831112619 64 235 0.0 0.0 0.00 0.00 0.00 99 1023.5
20260831112114 64 237 0.0 0.0 0.00 0.00 0.00 99 1023.7
20260831111610 64 237 0.0 0.0 0.00 0.00 0.00 99 1023.5
20260831111106 64 237 0.0 0.0 0.00 0.00 0.00 99 1023.5
20260831110601 64 237 0.0 0.0 0.00 0.00 0.00 99 1023.4
20260831110056 64 237 0.0 0.0 0.00 0.00 0.00 99 1023.6
20260831105555 64 237 0.0 0.0 0.00 0.00 0.00 99 1023.5
20260831105050 64 237 0.0 0.0 0.00 0.00 0.00 99 1023.5
20260831104546 64 237 0.0 0.0 0.00 0.00 0.00 99 1023.5
20260831104042 64 237 0.0 0.0 0.00 0.00 0.00 99 1023.4